Home   Weather   Cancún   Past weeks

Flag for Mexico Past Weather in Cancún, Quintana Roo, Mexico — Yesterday and Last 2 Weeks

Now
73 °F

Clear.


Feels Like: 73 °F
Forecast: 71 / 84 °F
Wind: 5 mph from Southeast

Location: Cancun International Airport

Current Time: Feb 25, 2017 at 2:00:14 am

Latest Report: Feb 25, 2017 at 12:45 am


Visibility: 7 mi

Pressure: 29.85 "Hg

Humidity: 83%

Dew Point: 68 °F

Location of CancúnLocation

Past Weather in Cancún — Graph

°F

Cancún Temperature Yesterday

Maximum temperature yesterday: 82 °F (at 1:43 pm)
Minimum temperature yesterday: 59 °F (at 6:46 am)
Average temperature yesterday: 72 °F

High & Low Weather Summary for the Past Weeks

 TemperatureHumidityPressure
High86 °F (Feb 15, 2:43 pm)100% (Feb 11, 2:45 am)30.26 "Hg (Feb 11, 2:45 am)
Low59 °F (Feb 24, 6:46 am)35% (Feb 22, 1:48 pm)29.73 "Hg (Feb 23, 4:42 pm)
Average76 °F75%29.99 "Hg
* Reported Feb 10 12:46 am — Feb 25 12:45 am, Cancún, Weather by CustomWeather, © 2017

Note: Actual official high and low records may vary slightly from our data, if they occured in-between our weather recording intervals... More about our weather records

Advertising

Cancún Weather History for the Previous 24 Hours

Scroll right to see more
 ConditionsComfort  
Time TempWeatherWind HumidityBarometerVisibility
12:45 am
Sat, Feb 25
73 °FClear.5 mph83%29.85 "Hg7 mi
11:45 pm
Fri, Feb 24
75 °FClear.9 mph78%29.85 "Hg7 mi
10:45 pm75 °FClear.10 mph78%29.94 "Hg7 mi
9:45 pm75 °FClear.9 mph78%29.84 "Hg7 mi
8:45 pm75 °FClear.8 mph78%29.82 "Hg7 mi
7:42 pm77 °FSunny.8 mph74%29.79 "Hg7 mi
6:41 pm79 °FSunny.14 mph70%29.78 "Hg7 mi
5:43 pm81 °FSunny.14 mph66%29.77 "Hg7 mi
4:42 pm81 °FSunny.16 mph66%29.76 "Hg7 mi
3:41 pm81 °FPassing clouds.16 mph62%29.79 "Hg7 mi
2:43 pm82 °FPassing clouds.14 mph58%29.79 "Hg7 mi
1:43 pm82 °FPassing clouds.15 mph58%29.83 "Hg7 mi
12:43 pm81 °FScattered clouds.14 mph58%29.85 "Hg7 mi
11:44 am81 °FPassing clouds.7 mph58%29.87 "Hg7 mi
10:42 am79 °FSunny.5 mph61%29.88 "Hg7 mi
9:42 am77 °FSunny.7 mph65%29.87 "Hg7 mi
8:43 am70 °FSunny.No wind83%29.86 "Hg7 mi
7:44 am59 °FClear.No wind100%29.85 "Hg7 mi
6:46 am59 °FClear.No wind100%29.84 "Hg7 mi
5:46 am61 °FClear.3 mph100%29.83 "Hg6 mi
4:43 am61 °FClear.3 mph100%29.82 "Hg6 mi
3:44 am61 °FClear.3 mph94%29.82 "Hg7 mi
2:45 am61 °FClear.5 mph100%29.82 "Hg6 mi
Weather by CustomWeather, © 2017

See weather overviewHow to use our weather pages